SAS431 ESGG-EKCH

Flight info

Callsign SAS431
Flight time 0h 28m
Altitude 25000
Route TOPLA L996 ERNOV
Aircraft A319/M-SDE3FGHIRWY/LB1

Departure

Time 2026-05-06 10:45
Airport Göteborg Landvetter Airport (ESGG)

Arrival

Time 2026-05-06 11:13
Airport Copenhagen Kastrup Airport (EKCH)
Time Latitude Longitude Altitude Speed Heading
2026-05-06 10:20 57.66775 12.29327 529 ft 0 kts 116°
2026-05-06 10:34 57.66775 12.29326 529 ft 0 kts 116°
2026-05-06 10:38 57.66783 12.29297 518 ft 4 kts 116°
2026-05-06 10:39 57.66794 12.29253 518 ft 4 kts 96°
2026-05-06 10:39 57.66788 12.29207 517 ft 4 kts 64°
2026-05-06 10:39 57.66780 12.29171 515 ft 4 kts 63°
2026-05-06 10:39 57.66764 12.29134 514 ft 4 kts 27°
2026-05-06 10:40 57.66742 12.29116 514 ft 1 kts 26°
2026-05-06 10:40 57.66741 12.29116 514 ft 1 kts 26°
2026-05-06 10:40 57.66741 12.29115 514 ft 0 kts 26°
2026-05-06 10:41 57.66748 12.29122 514 ft 4 kts 27°
2026-05-06 10:41 57.66779 12.29067 508 ft 12 kts 302°
2026-05-06 10:42 57.66827 12.28903 509 ft 15 kts 308°
2026-05-06 10:42 57.66891 12.28880 513 ft 15 kts 20°
2026-05-06 10:42 57.66997 12.28977 514 ft 20 kts 26°
2026-05-06 10:42 57.67131 12.29101 514 ft 24 kts 25°
2026-05-06 10:43 57.67294 12.29244 513 ft 27 kts 25°
2026-05-06 10:43 57.67419 12.29350 513 ft 12 kts
2026-05-06 10:43 57.67461 12.29213 510 ft 16 kts 266°
2026-05-06 10:44 57.67357 12.28953 512 ft 32 kts 206°
2026-05-06 10:44 57.66954 12.28587 514 ft 95 kts 206°
2026-05-06 10:44 57.66187 12.27887 508 ft 148 kts 206°
2026-05-06 10:44 57.65222 12.26996 954 ft 156 kts 208°
2026-05-06 10:45 57.64250 12.26100 1690 ft 157 kts 210°
2026-05-06 10:45 57.63269 12.25213 2413 ft 158 kts 210°
2026-05-06 10:45 57.62201 12.24333 2829 ft 180 kts 199°
2026-05-06 10:45 57.60851 12.24371 3165 ft 208 kts 174°
2026-05-06 10:46 57.59304 12.24754 3554 ft 239 kts 174°
2026-05-06 10:46 57.57581 12.25175 4084 ft 261 kts 174°
2026-05-06 10:46 57.55730 12.25629 4978 ft 272 kts 174°
2026-05-06 10:46 57.53841 12.26091 5977 ft 276 kts 174°
2026-05-06 10:47 57.51950 12.26548 6930 ft 280 kts 175°
2026-05-06 10:47 57.50005 12.27012 7878 ft 283 kts 176°
2026-05-06 10:47 57.48033 12.27477 8858 ft 288 kts 176°
2026-05-06 10:47 57.46032 12.27949 9818 ft 292 kts 177°
2026-05-06 10:48 57.43976 12.28430 10386 ft 308 kts 178°
2026-05-06 10:48 57.41768 12.28937 10782 ft 328 kts 177°
2026-05-06 10:48 57.39477 12.29470 11512 ft 334 kts 178°
2026-05-06 10:48 57.37152 12.30016 12338 ft 338 kts 178°
2026-05-06 10:49 57.34813 12.30571 13184 ft 340 kts 179°
2026-05-06 10:49 57.32455 12.31132 13966 ft 343 kts 179°
2026-05-06 10:49 57.30077 12.31693 14654 ft 346 kts 179°
2026-05-06 10:49 57.27678 12.32256 15337 ft 349 kts 179°
2026-05-06 10:50 57.25259 12.32821 16030 ft 352 kts 179°
2026-05-06 10:50 57.22813 12.33390 16713 ft 355 kts 179°
2026-05-06 10:50 57.20359 12.33961 17401 ft 358 kts 180°
2026-05-06 10:50 57.17874 12.34538 18077 ft 361 kts 180°
2026-05-06 10:51 57.15407 12.35110 18658 ft 364 kts 180°
2026-05-06 10:51 57.12886 12.35693 18923 ft 366 kts 180°
2026-05-06 10:51 57.10342 12.36281 19484 ft 368 kts 180°
2026-05-06 10:51 57.07790 12.36872 20094 ft 370 kts 180°
2026-05-06 10:52 57.05222 12.37467 20670 ft 373 kts 180°
2026-05-06 10:52 57.02644 12.38064 20903 ft 374 kts 180°
2026-05-06 10:52 57.00092 12.38663 20947 ft 363 kts 180°
2026-05-06 10:52 56.97610 12.39251 20964 ft 357 kts 180°
2026-05-06 10:53 56.95157 12.39825 20961 ft 353 kts 180°
2026-05-06 10:53 56.92719 12.40386 20959 ft 353 kts 180°
2026-05-06 10:53 56.90277 12.40935 20956 ft 354 kts 180°
2026-05-06 10:53 56.87835 12.41483 20955 ft 354 kts 180°
2026-05-06 10:54 56.85422 12.42028 20954 ft 354 kts 180°
2026-05-06 10:54 56.82979 12.42581 20954 ft 354 kts 180°
2026-05-06 10:54 56.80533 12.43135 20954 ft 354 kts 180°
2026-05-06 10:54 56.78086 12.43695 20952 ft 354 kts 180°
2026-05-06 10:55 56.75641 12.44255 20947 ft 354 kts 180°
2026-05-06 10:55 56.73192 12.44811 20897 ft 355 kts 180°
2026-05-06 10:55 56.70732 12.45364 20340 ft 356 kts 180°
2026-05-06 10:55 56.68286 12.45918 19916 ft 353 kts 180°
2026-05-06 10:56 56.65862 12.46473 19499 ft 349 kts 180°
2026-05-06 10:56 56.63464 12.47023 19091 ft 346 kts 180°
2026-05-06 10:56 56.61086 12.47566 18676 ft 342 kts 180°
2026-05-06 10:56 56.58733 12.48096 18278 ft 339 kts 180°
2026-05-06 10:57 56.56402 12.48620 17829 ft 335 kts 180°
2026-05-06 10:57 56.54095 12.49135 17429 ft 331 kts 180°
2026-05-06 10:57 56.51820 12.49643 17035 ft 327 kts 180°
2026-05-06 10:57 56.49578 12.50144 16646 ft 323 kts 180°
2026-05-06 10:58 56.47356 12.50640 16260 ft 320 kts 180°
2026-05-06 10:58 56.45160 12.51132 15877 ft 317 kts 180°
2026-05-06 10:58 56.43010 12.51614 15500 ft 314 kts 180°
2026-05-06 10:58 56.40826 12.52099 15128 ft 311 kts 180°
2026-05-06 10:59 56.38709 12.52568 14762 ft 309 kts 179°
2026-05-06 10:59 56.36581 12.53041 14394 ft 307 kts 179°
2026-05-06 10:59 56.34468 12.53511 14031 ft 305 kts 179°
2026-05-06 10:59 56.32368 12.53980 13664 ft 303 kts 179°
2026-05-06 11:00 56.30278 12.54444 13264 ft 301 kts 179°
2026-05-06 11:00 56.28210 12.54898 12922 ft 298 kts 179°
2026-05-06 11:00 56.26158 12.55348 12552 ft 296 kts 179°
2026-05-06 11:00 56.24122 12.55795 12200 ft 294 kts 179°
2026-05-06 11:01 56.22092 12.56242 11849 ft 293 kts 179°
2026-05-06 11:01 56.20078 12.56687 11494 ft 291 kts 179°
2026-05-06 11:01 56.18069 12.57130 11143 ft 290 kts 179°
2026-05-06 11:01 56.16073 12.57405 10834 ft 285 kts 186°
2026-05-06 11:02 56.14089 12.57407 10650 ft 286 kts 186°
2026-05-06 11:02 56.12126 12.57417 10453 ft 286 kts 186°
2026-05-06 11:02 56.10112 12.57436 10250 ft 285 kts 185°
2026-05-06 11:02 56.08153 12.57460 10063 ft 285 kts 185°
2026-05-06 11:03 56.06200 12.57232 9887 ft 278 kts 197°
2026-05-06 11:03 56.04311 12.56510 9757 ft 278 kts 197°
2026-05-06 11:03 56.02417 12.55808 9620 ft 278 kts 197°
2026-05-06 11:03 56.00525 12.55114 9481 ft 278 kts 197°
2026-05-06 11:04 55.98629 12.54416 9349 ft 278 kts 197°
2026-05-06 11:04 55.96734 12.53715 9209 ft 278 kts 197°
2026-05-06 11:04 55.94840 12.53017 9077 ft 278 kts 197°
2026-05-06 11:04 55.92951 12.52322 8944 ft 278 kts 196°
2026-05-06 11:05 55.91059 12.51622 8815 ft 277 kts 196°
2026-05-06 11:05 55.89167 12.50918 8680 ft 277 kts 196°
2026-05-06 11:05 55.87276 12.50217 8447 ft 278 kts 196°
2026-05-06 11:05 55.85389 12.49518 7950 ft 277 kts 196°
2026-05-06 11:06 55.83508 12.48825 7464 ft 275 kts 195°
2026-05-06 11:06 55.81638 12.48137 6987 ft 275 kts 195°
2026-05-06 11:06 55.79770 12.47449 6512 ft 274 kts 194°
2026-05-06 11:06 55.77908 12.46762 6024 ft 273 kts 194°
2026-05-06 11:07 55.76052 12.46083 5525 ft 273 kts 194°
2026-05-06 11:07 55.74193 12.45406 5032 ft 272 kts 193°
2026-05-06 11:07 55.72339 12.44727 4529 ft 272 kts 193°
2026-05-06 11:07 55.70524 12.44055 4074 ft 268 kts 193°
2026-05-06 11:08 55.68713 12.43376 3658 ft 263 kts 193°
2026-05-06 11:08 55.66972 12.42724 3420 ft 249 kts 193°
2026-05-06 11:08 55.65303 12.42122 3001 ft 242 kts 189°
2026-05-06 11:08 55.63661 12.42346 2758 ft 227 kts 167°
2026-05-06 11:09 55.62197 12.42990 2425 ft 210 kts 165°
2026-05-06 11:09 55.60817 12.43627 1998 ft 200 kts 165°
2026-05-06 11:09 55.59506 12.44222 1583 ft 189 kts 166°
2026-05-06 11:09 55.58269 12.44801 1512 ft 183 kts 162°
2026-05-06 11:10 55.57174 12.45918 1517 ft 181 kts 142°
2026-05-06 11:10 55.56227 12.47337 1398 ft 171 kts 130°
2026-05-06 11:10 55.55647 12.48960 1294 ft 147 kts 111°
2026-05-06 11:10 55.55403 12.50649 1182 ft 137 kts 92°
2026-05-06 11:11 55.55458 12.52297 1131 ft 133 kts 76°
2026-05-06 11:11 55.55727 12.53826 1032 ft 131 kts 63°
2026-05-06 11:11 55.56155 12.55223 849 ft 127 kts 54°
2026-05-06 11:11 55.56724 12.56422 708 ft 126 kts 42°
2026-05-06 11:12 55.57344 12.57465 489 ft 125 kts 43°
2026-05-06 11:12 55.58007 12.58474 336 ft 124 kts 39°
2026-05-06 11:12 55.58654 12.59469 205 ft 123 kts 41°
2026-05-06 11:12 55.59296 12.60469 49 ft 123 kts 40°
2026-05-06 11:13 55.59887 12.61383 17 ft 100 kts 41°
2026-05-06 11:13 55.60323 12.62056 17 ft 70 kts 41°
2026-05-06 11:13 55.60657 12.62573 20 ft 47 kts 41°
2026-05-06 11:13 55.60909 12.62836 19 ft 33 kts 15°
2026-05-06 11:14 55.61106 12.62919 17 ft 25 kts 17°
2026-05-06 11:14 55.61252 12.63118 19 ft 29 kts 41°
2026-05-06 11:14 55.61415 12.63368 17 ft 33 kts 41°
2026-05-06 11:14 55.61592 12.63643 17 ft 35 kts 41°
2026-05-06 11:15 55.61762 12.63907 18 ft 32 kts 41°
2026-05-06 11:15 55.61922 12.64115 19 ft 29 kts 25°
2026-05-06 11:15 55.62119 12.64279 19 ft 30 kts 26°
2026-05-06 11:15 55.62301 12.64409 17 ft 25 kts 14°
2026-05-06 11:16 55.62429 12.64469 17 ft 12 kts 15°
2026-05-06 11:16 55.62522 12.64491 17 ft 14 kts 15°
2026-05-06 11:16 55.62563 12.64513 17 ft 0 kts 16°